Flag for Canada Weather past 2 weeks in Fort Smith, Northwest Territories, Canada

Now
55 °F

Overcast.


Feels Like: 53 °F
Forecast: 55 / 71 °F
Wind: 8 mph from Northeast

Location: Fort Smith

Current Time: Jul 31, 2014 at 10:23:00 AM

Latest Report: Jul 31, 2014 at 10:00 AM


Visibility: 12 mi

Pressure: 30.14 "Hg

Humidity: 100%

Dew point: 55 °F

Location of Fort SmithLocation

Historic Weather in Fort Smith — Graph

°F

Fort Smith temperature yesterday

Maximum temperature yesterday: 93 °F (at 4:00 PM)
Minimum temperature yesterday: 59 °F (at 6:00 AM)
Average temperature yesterday: 75 °F

Past Weeks' High & Low Weather Summary

 TemperatureHumidityPressure
High93 °F (Jul 30, 4:00 PM)100% (Jul 28, 5:00 AM)30.12 "Hg (Jul 28, 5:00 AM)
Low45 °F (Jul 21, 5:00 AM)22% (Jul 25, 3:00 PM)29.45 "Hg (Jul 19, 10:00 AM)
Average69 °F57%29.85 "Hg
* Reported Jul 16 9:00 AM — Jul 31 9:00 AM, Fort Smith, Weather by CustomWeather, © 2014

Note: Actual official high and low records may vary slightly from our data, if they occured in-between our weather recording intervals... More about our weather records

Advertising

Fort Smith weather history for previous 24 hours

 ConditionsComfort  
Time TempWeatherWind HumidityBarometerVisibility
9:00 AM
Jul 31
57 °FMostly cloudy.8 mph94%30.11 "Hg6 mi
8:00 AM59 °FMostly cloudy.5 mph82%30.08 "Hg3 mi
7:00 AM64 °FFog.No wind94%30.06 "Hg1 mi
6:00 AM64 °FFog.9 mph94%30.03 "Hg0 mi
5:00 AM63 °FFog.9 mph100%30.02 "Hg0 mi
4:00 AM63 °FFog.3 mph94%30.01 "Hg5 mi
3:00 AM64 °FThunderstorms. Mostly cloudy.3 mph83%30.01 "Hg12 mi
2:00 AM63 °FThunderstorms. Mostly cloudy.3 mph94%30.01 "Hg15 mi
1:00 AM63 °FThunderstorms. Partly cloudy.5 mph94%29.96 "Hg15 mi
12:00 AM64 °FThunderstorms. Overcast.9 mph88%29.97 "Hg12 mi
11:00 PM
Jul 30
66 °FThunderstorms. Mostly cloudy.6 mph83%29.93 "Hg15 mi
10:00 PM66 °FThunderstorms. Mostly cloudy.3 mph83%29.92 "Hg15 mi
9:00 PM64 °FThunderstorms. Mostly cloudy.9 mph88%29.96 "Hg15 mi
8:00 PM64 °FThunderstorms. Mostly cloudy.12 mph88%29.93 "Hg15 mi
7:00 PM82 °FThunderstorms. Partly sunny.8 mph45%29.87 "Hg5 mi
6:00 PM86 °FThunderstorms. Partly sunny.5 mph40%29.87 "Hg15 mi
5:00 PM90 °FPartly sunny.8 mph31%29.89 "Hg15 mi
4:00 PM93 °FPartly sunny.13 mph30%29.90 "Hg15 mi
3:00 PM90 °FPartly sunny.10 mph38%29.91 "Hg15 mi
2:00 PM90 °FPassing clouds.7 mph33%29.92 "Hg15 mi
1:00 PM88 °FPassing clouds.5 mph35%29.94 "Hg15 mi
12:00 PM86 °FPassing clouds.13 mph35%29.96 "Hg15 mi
11:00 AM82 °FScattered clouds.5 mph45%29.97 "Hg15 mi
10:00 AM79 °FPassing clouds.No wind54%29.98 "Hg15 mi
Weather by CustomWeather, © 2014

See weather overviewHow to use our weather pages